Weather Roundup
Issued by NWS Chicago, IL

Home | Current Version | Previous Version | Graphics & Text | Print | Product List | Glossary On
Versions: 1 2 3 4 5 6 7 8 9 10 11 12 13 14 15 16 17 18 19 20 21 22 23 24 25 26 27 28 29 30 31 32 33 34 35 36 37 38 39 40 41 42 43 44 45 46 47 48 49 50
000
NZUS59 KLOT 212103
HRRLOT

CHICAGO AREA WEATHER ROUNDUP
NATIONAL WEATHER SERVICE CHICAGO/ROMEOVILLE IL
400 PM CDT THU SEP 21 2017

NOTE: "FAIR" INDICATES FEW OR NO CLOUDS BELOW 12,000 FEET WITH NO
SIGNIFICANT WEATHER AND/OR OBSTRUCTIONS TO VISIBILITY.

* THESE STATIONS ARE NOT UNDER NWS QUALITY CONTROL. THEY ALSO MAY NOT
  REPORT WEATHER SUCH AS PRECIPITATION OR FOG.

ILZ005-006-012>014-019>023-212200-
NORTHEAST ILLINOIS

CITY           SKY/WX    TMP DP  RH WIND       PRES   REMARKS
OHARE          PTSUNNY   94  61  33 S6        29.97F HX  94
MIDWAY         MOSUNNY   94  66  39 SW8       29.97F HX  97
AURORA         SUNNY     90  66  45 S10       29.99F HX  92
LANSING*       SUNNY     92  73  54 SW6       29.99F HX 100
JOLIET*        SUNNY     93  69  45 S6        29.98F HX  98
WAUKEGAN       MOSUNNY   79  70  74 E8        29.99F HAZE    HX  82
DUPAGE AIRPORT SUNNY     92  65  40 S7        29.98F HX  94
WHEELING       MOSUNNY   88  69  53 E7        29.99F HX  92
MORRIS*        MOSUNNY   88  69  53 S5        29.98S HX  92
LEWIS AIRPORT* SUNNY     92  67  44 SW7       29.99F HX  95
NORTHERLY ISL    N/A     80  67  64 NE6         N/A  HX  82
$$

WIZ051-052-058>065-066-070>072-212200-
SOUTHEAST WISCONSIN

CITY           SKY/WX    TMP DP  RH WIND       PRES   REMARKS
MILWAUKEE      CLOUDY    81  69  67 SE8       29.99F HX  84
KENOSHA*       MOSUNNY   84  68  58 E10       30.00F HX  87
RACINE*        PTSUNNY   79  70  74 SE12      30.01F HX  82
WAUKESHA       SUNNY     82  64  54 E9        30.00F HX  84
$$

INZ001>003-010>013-019-020-212200-
NORTHWEST INDIANA

CITY           SKY/WX    TMP DP  RH WIND       PRES   REMARKS
GARY*          MOSUNNY   93  64  38 VRB5      29.99F HX  95
MICHIGAN CITY* NOT AVBL
RENSSELAER*    NOT AVBL
VALPARAISO     PTSUNNY   92  70  48 SW10      30.01S HX  97
$$

LMZ740>746-212200-
SOUTHERN LAKE MICHIGAN

STATION/POSITION TIME  SKY/WX   TEMP WIND        PRES    VSBY
                                AIR  DIR/SP/G
                 (UTC)          (F)  (DEG/KT/KT) (MB)    (MI)
HARRISON CRIB    2040            76   90/ 14/ 15   N/A
BURNHAM HARBOR   2100            79                N/A
CALUMET HARBOR   2030            85   70/  7/  9 1015.0F
BURNS HARBOR     2040            78   80/ 10/ 12 1016.3S
MICHIGAN CITY    2040            74   40/ 10/ 10   N/A
$$

ABBREVIATIONS USED IN REMARKS
   TC - TEMPERATURE IN CELSIUS
  WCI - WIND CHILL INDEX
   HX - HEAT INDEX
  VSB - VISIBILITY
$$




USA.gov is the U.S. government's official web portal to all federal, state and local government web resources and services.